SCP
0 0 0 0 0 0 0 0 0 0 0 0 0 0 0 0 -0 -0 -0 -0 -0 -0 -0 -0 -0 0 0 0 0 0 1 1 1 1 1 1 1 1 1 1 1 1 1 1
0 0 0 0 -0 0 0 0 0 0 0 0 0 0 0 0 0 -0 -0 -0 0 -0 -0 -0 -0 0 0 0 0 0 2 1 2 2 2 2 1 1 1 1 1 1 1 0
-0 0 0 -0 0 0 0 0 0 0 0 0 0 0 0 0 0 -0 -0 0 0 -0 -0 -0 0 0 0 0 0 0 2 2 2 2 2 1 1 1 1 1 0 0 0 0
0 0 0 0 0 0 0 0 0 0 0 0 0 0 0 0 0 0 0 0 -0 0 0 -0 -0 -0 0 0 0 0 2 1 1 1 2 1 1 1 0 0 0 0 0 0
0 0 0 0 0 0 0 0 0 0 0 0 0 0 -0 0 0 -0 -0 -0 -0 0 0 0 0 0 0 0 0 0 1 1 1 1 1 1 0 0 0 0 0 0 0 0
0 0 0 0 0 0 0 0 0 0 0 0 0 -0 -0 -0 -0 -0 0 -0 0 -0 0 0 0 0 0 0 0 0 0 1 1 1 1 0 0 0 0 0 0 0 0 0
0 0 0 0 0 0 0 0 0 0 0 0 0 0 0 -0 -0 -0 -0 -0 -0 -0 0 0 0 0 0 0 0 0 1 1 1 0 0 0 0 0 0 0 0 0 0 0
0 0 -0 0 0 0 0 0 0 0 -0 0 -0 0 -0 0 -0 -0 -0 -0 -0 -0 -0 -0 -0 0 0 0 0 0 1 1 0 0 0 0 0 0 0 0 0 0 0 0
0 0 0 0 0 0 0 0 0 -0 -0 -0 0 -0 -0 -0 -0 -0 -0 -0 -0 -0 -0 -0 -0 -0 0 0 0 0 1 0 0 0 0 0 0 0 0 0 0 0 0 0
0 0 0 0 0 0 0 0 0 -0 -0 -0 -0 -0 -0 -0 -0 -0 -0 -0 -0 -0 -0 -0 0 0 0 0 0 0 0 0 0 0 0 0 0 0 0 0 0 0 0 0
0 0 -0 0 0 0 0 0 -0 -0 0 -0 -0 -0 -0 -0 -0 -0 -0 -0 -0 -0 -0 -0 -0 0 0 0 0 0 0 0 0 0 0 0 0 0 0 0 0 0 0 0
0 0 0 0 0 0 0 0 -0 -0 -0 -0 -0 -0 -0 -0 -0 -0 -0 -0 -0 -0 -0 -0 0 0 0 0 0 0 0 0 0 0 0 0 0 0 0 0 0 0 0 0
0 0 0 0 -0 0 -0 -0 -0 -0 -0 -0 -0 -0 0 -0 -0 -0 -0 -0 -0 0 0 -0 0 0 0 -0 -0 0 0 0 0 0 0 0 0 0 0 0 0 0 0 0
0 0 0 0 0 0 -0 -0 -0 -0 -0 0 0 0 0 0 -0 -0 -0 -0 0 0 0 0 0 -0 -0 0 0 0 0 0 0 0 0 0 0 0 0 0 0 0 0 0
0 0 0 0 -0 0 -0 -0 -0 0 0 0 0 0 0 -0 -0 -0 -0 0 0 0 0 0 0 0 0 0 0 0 0 0 0 0 0 0 0 0 0 0 0 0 0 0
0 0 0 -0 -0 -0 -0 -0 0 0 0 0 0 0 0 -0 -0 -0 0 0 0 0 0 0 0 0 0 0 0 0 0 0 0 0 0 0 0 0 0 0 0 0 0 0
0 0 -0 -0 -0 -0 0 0 0 0 0 0 0 0 0 0 -0 0 0 0 0 0 0 0 0 0 0 0 0 0 0 0 0 0 0 0 0 0 0 0 0 0 0 0
0 -0 0 -0 -0 -0 -0 0 0 0 0 0 0 0 0 0 0 0 0 0 0 0 0 0 0 0 0 0 0 0 0 0 0 0 0 0 0 0 0 0 0 0 0 0
-0 -0 -0 -0 -0 0 -0 -0 0 0 0 0 0 0 0 0 0 0 0 0 0 0 0 0 0 0 0 0 0 0 0 0 0 0 0 0 0 0 0 0 0 0 0 0
-0 -0 0 -0 -0 0 0 0 0 0 0 0 0 0 0 0 0 0 0 0 0 0 0 0 0 0 0 0 0 0 0 0 0 0 0 0 0 0 0 0 0 0 0 0
0 -0 -0 -0 0 0 0 0 0 0 0 0 0 0 0 0 0 0 0 0 0 0 0 0 0 0 0 0 0 0 0 -0 0 0 0 0 0 0 0 0 0 0 0 0
-0 -0 0 0 0 0 0 0 0 0 0 0 0 0 -0 -0 0 0 0 0 0 0 0 0 0 0 0 0 0 0 0 0 0 0 0 0 0 0 0 0 0 0 0 0
-0 -0 0 0 0 0 0 0 0 0 0 0 0 0 0 0 0 0 0 0 0 0 0 0 0 0 0 0 0 0 0 0 0 0 0 0 0 0 0 0 0 0 0 0
0 -0 0 0 0 -0 -0 0 0 0 0 0 -0 0 0 0 0 0 0 0 0 0 0 0 0 0 0 0 0 0 0 0 0 0 0 0 0 0 0 0 0 0 -0 -0
-0 -0 -0 -0 0 -0 0 0 0 0 0 0 0 0 0 0 0 0 0 0 0 0 0 0 0 0 0 0 0 0 0 0 0 0 0 0 0 0 0 0 -0 -0 -0 -0
0 -0 -0 -0 -0 -0 -0 -0 0 0 0 0 0 0 0 0 0 0 0 0 0 0 0 0 0 0 0 0 0 0 0 0 0 0 0 0 0 -0 0 0 0 -0 -0 0
0 -0 0 0 -0 0 -0 -0 -0 0 0 0 0 0 0 0 0 0 0 0 0 0 0 0 0 0 0 0 0 0 0 0 0 0 0 0 0 0 0 -0 -0 -0 0 0
Wind_Speed_500mb
16 18 14 23 33 35 30 37 24 41 38 48 32 25 19 30 40 46 52 56 44 54 62 67 66 77 70 59 63 42 36 45 43 55 62 59 57 57 52 51 50 49 50 50
7 17 24 34 38 38 40 40 37 44 46 36 24 18 24 31 39 53 53 48 46 64 74 70 68 79 77 59 62 41 26 28 40 45 48 50 52 49 47 48 51 52 51 52
9 2 12 18 30 24 14 13 15 15 27 4 13 12 20 37 52 56 54 41 52 66 76 71 63 68 78 64 60 36 26 23 37 43 46 46 46 46 48 51 53 54 56 56
8 4 10 10 8 10 14 14 15 21 22 8 12 33 42 51 56 60 54 52 71 75 85 71 69 68 71 55 55 26 26 34 44 46 42 43 46 56 55 57 59 60 57 49
6 7 14 13 4 3 7 13 11 18 12 15 36 51 50 46 48 52 66 83 83 81 80 72 65 53 50 49 45 22 30 46 50 46 44 47 58 60 63 65 66 57 52 43
2 3 10 8 5 13 8 17 8 10 20 37 31 30 34 51 72 76 79 78 73 81 78 68 56 44 51 46 39 30 34 50 51 49 50 56 64 69 61 67 58 57 47 41
12 10 15 7 10 5 1 5 27 49 50 33 32 43 88 81 75 74 80 75 73 70 67 62 50 47 49 45 40 31 35 55 54 54 60 64 66 67 69 67 58 50 47 41
5 7 14 5 2 6 10 53 59 31 64 53 61 77 71 73 78 75 73 72 69 71 66 54 43 45 48 51 32 8 55 57 56 58 63 73 68 73 69 60 56 52 43 36
13 11 10 13 31 42 58 44 46 66 64 63 68 71 74 74 73 74 73 72 74 67 60 50 38 39 39 34 30 13 53 54 64 62 70 72 75 73 67 59 51 44 37 32
3 12 16 31 49 55 49 49 65 65 69 59 74 63 70 74 70 70 73 70 71 66 58 47 29 22 35 32 34 24 44 55 66 75 72 68 67 64 61 52 42 37 33 30
14 25 31 44 44 59 49 57 66 62 64 65 60 68 68 71 71 71 74 73 65 61 55 49 29 29 22 34 36 40 60 85 80 76 76 72 67 61 46 35 29 25 24 22
9 40 43 42 61 60 50 73 73 76 64 62 56 64 66 67 69 73 75 65 59 52 46 42 39 35 42 39 42 45 72 82 82 78 70 65 60 54 38 31 26 21 23 16
17 46 58 54 59 60 67 87 65 59 59 61 61 58 63 70 71 68 61 48 44 32 30 40 42 70 76 78 76 64 74 80 75 73 63 58 53 47 47 41 35 29 26 17
54 40 31 40 60 69 59 57 45 49 46 47 53 52 56 60 59 50 48 42 17 16 22 41 64 60 72 72 70 71 65 64 64 65 61 54 46 44 45 47 45 37 31 20
42 50 41 68 74 55 54 45 51 47 49 51 47 49 53 51 44 40 28 13 22 1 15 32 43 55 57 60 62 59 57 57 55 60 52 44 41 45 48 48 47 42 41 32
45 45 59 62 63 48 53 48 45 53 52 53 51 54 48 36 31 21 17 13 13 16 18 40 45 44 40 48 57 55 54 52 48 45 42 38 40 43 43 46 46 55 43 34
41 36 53 64 64 58 51 44 43 50 50 46 48 45 36 24 18 13 19 17 14 19 23 46 40 38 40 50 49 53 49 45 39 39 38 38 38 39 41 48 51 49 41 30
35 41 53 57 60 56 56 56 51 48 53 48 40 34 24 19 22 13 17 19 15 17 31 39 41 39 46 50 49 46 44 42 41 41 39 39 41 42 41 55 50 49 44 46
38 44 57 57 53 45 44 44 44 40 38 35 30 27 20 15 13 12 16 22 27 29 36 40 42 43 43 48 45 44 43 45 45 42 41 44 44 44 52 53 49 47 50 53
41 44 59 59 60 59 57 46 39 39 39 35 28 24 17 16 13 23 21 33 36 35 39 45 44 42 41 44 45 41 40 43 43 44 46 48 47 49 47 45 49 55 50 51
43 36 50 54 59 58 61 52 46 44 41 34 35 34 28 26 23 29 35 35 34 37 41 40 40 40 39 42 41 39 41 43 42 50 47 48 48 48 48 54 55 58 52 49
41 34 46 55 62 61 57 55 49 46 43 36 37 37 31 31 44 45 46 41 34 33 34 39 36 34 38 39 39 41 51 51 49 52 48 46 47 51 54 61 58 55 49 45
37 29 44 57 59 57 54 55 52 47 44 40 43 42 43 39 44 55 59 47 36 34 31 33 26 27 33 34 41 45 51 51 55 56 54 50 49 50 55 61 57 53 49 43
32 29 39 48 53 61 61 55 56 52 48 42 38 40 38 46 47 54 47 44 40 34 39 36 31 29 25 36 41 45 48 54 57 54 52 46 45 46 50 54 53 49 46 44
33 28 34 46 52 54 50 53 55 52 51 50 46 43 41 43 48 41 42 44 38 35 38 33 25 25 29 34 35 35 42 47 53 56 53 52 53 55 57 58 54 48 46 44
33 32 31 37 40 46 48 51 56 59 58 56 52 48 42 37 37 37 38 40 38 29 36 37 32 26 28 29 31 36 39 41 45 48 51 52 55 59 63 63 58 54 48 46
24 25 28 29 33 34 40 45 51 57 62 63 56 49 44 40 39 40 40 45 45 44 44 45 42 37 34 34 32 32 34 39 43 47 48 51 53 56 58 59 58 57 60 63
Wind_Direction_500mb
236 249 269 259 262 260 244 249 246 275 273 281 290 287 280 299 308 306 312 316 301 307 312 314 312 312 310 310 326 308 254 227 212 215 215 214 214 206 203 203 204 202 204 200
256 235 242 258 260 254 253 253 256 261 269 275 270 274 271 292 310 313 308 304 307 317 315 310 316 302 306 303 320 308 248 230 215 197 199 194 193 197 197 196 201 199 194 184
268 227 295 272 253 241 218 218 205 236 257 281 274 272 297 310 307 306 302 293 310 308 309 302 291 297 303 305 319 297 235 220 206 186 182 188 196 194 191 191 190 186 177 178
267 32 244 236 238 231 226 249 247 273 280 287 279 286 293 296 296 295 291 292 307 300 303 296 293 293 300 313 311 282 219 200 188 185 187 194 194 182 183 185 176 172 169 173
251 218 296 276 36 202 187 278 258 285 322 292 297 300 286 289 293 287 287 289 296 293 296 296 290 296 306 303 302 273 223 204 203 201 199 196 191 186 180 170 166 162 166 170
356 274 250 244 140 109 98 278 63 21 323 306 310 300 298 305 301 294 291 293 289 296 299 295 286 288 289 288 295 259 230 212 205 207 207 191 186 178 170 162 162 165 168 175
242 255 279 260 157 128 323 321 321 303 293 304 291 283 299 303 297 293 296 298 295 296 294 292 291 292 287 285 281 266 216 214 204 204 196 181 178 164 161 162 162 168 171 171
237 237 269 148 98 224 277 310 298 306 304 293 294 302 297 296 298 297 296 298 296 294 294 294 297 294 282 275 265 215 192 195 197 195 177 168 167 156 158 164 166 168 172 173
185 230 247 285 257 292 309 291 307 304 292 298 298 296 296 298 299 298 297 296 301 301 303 301 295 279 273 261 225 198 169 180 169 166 154 150 152 156 161 165 167 168 173 176
329 265 254 282 301 304 301 303 314 307 293 302 298 301 302 298 298 297 297 294 298 297 295 290 300 281 265 223 203 170 165 170 160 154 152 156 156 160 164 164 169 175 177 180
258 276 293 279 294 301 299 309 318 302 303 301 303 300 299 298 298 298 298 302 302 295 290 283 291 280 175 173 183 168 173 170 155 156 156 159 162 161 163 168 176 178 178 185
271 301 292 290 305 313 312 314 312 305 307 308 302 301 305 302 302 301 305 309 300 294 291 274 269 211 226 164 145 149 156 154 156 157 161 159 162 158 161 163 153 136 125 126
271 300 294 320 318 312 319 312 312 309 308 309 314 313 316 310 309 309 312 310 298 301 263 259 165 145 144 140 167 173 162 159 158 160 159 157 159 162 162 159 154 143 141 125
311 319 314 319 317 316 318 318 322 317 315 316 318 318 315 310 309 311 310 299 298 283 352 94 139 151 153 157 164 163 159 160 160 161 161 161 161 165 166 163 158 156 150 139
338 336 320 322 321 319 329 322 325 325 326 328 327 324 321 314 310 314 312 320 122 48 74 121 137 146 164 167 166 157 158 159 160 163 163 164 165 167 171 170 166 160 151 147
335 335 332 325 327 330 338 338 335 327 331 331 335 330 324 323 323 321 352 39 122 88 97 123 138 147 160 162 160 155 153 152 150 155 162 167 170 174 178 173 168 157 153 152
327 329 333 331 338 338 341 346 336 332 332 332 335 333 335 344 343 14 44 102 98 103 118 139 142 146 150 150 151 151 146 144 150 157 165 173 176 177 177 174 160 153 139 141
334 336 345 348 342 341 346 349 346 342 337 334 340 344 345 3 16 11 77 116 106 101 125 137 142 142 149 149 143 140 141 151 157 159 160 162 162 164 166 166 152 143 141 137
339 341 350 355 354 352 0 360 346 338 343 344 356 3 0 7 42 70 113 116 114 118 122 138 145 148 149 149 145 146 148 151 153 149 148 149 147 150 156 156 150 147 148 149
339 346 352 357 5 4 8 7 4 357 0 4 20 39 41 41 74 113 120 105 106 103 118 132 142 149 149 154 157 151 147 145 148 146 144 148 149 152 156 157 154 152 154 159
340 346 359 2 6 10 16 14 13 12 10 18 29 38 48 69 87 109 107 109 96 100 116 128 144 150 153 152 158 153 146 141 143 144 146 149 153 155 154 156 159 158 159 161
347 348 4 9 14 15 19 17 24 21 20 29 44 49 64 82 81 82 92 95 98 104 110 118 129 153 153 150 150 151 149 144 144 148 149 153 155 155 159 158 161 164 163 165
358 359 9 15 15 20 22 25 30 33 31 29 37 48 59 71 75 80 80 85 91 105 106 106 122 145 144 154 158 155 153 154 152 154 156 157 162 162 158 159 163 166 167 169
12 10 14 17 20 27 25 31 35 36 39 39 41 48 57 66 71 75 79 81 87 97 102 99 103 120 144 147 149 149 153 159 161 164 164 164 161 159 159 161 163 167 169 171
11 6 8 15 22 25 30 31 38 42 44 46 46 47 52 61 69 72 79 81 74 78 89 88 98 112 130 138 144 151 154 158 167 170 172 169 164 163 164 164 166 169 167 166
27 26 12 11 20 23 26 31 36 37 42 47 47 49 52 57 67 78 86 88 90 86 86 90 97 109 118 122 132 141 148 151 157 163 167 164 165 166 166 167 165 164 167 165
28 37 35 23 16 20 28 35 38 37 37 42 50 54 61 65 69 78 89 96 98 95 93 93 97 100 105 111 117 124 134 143 148 152 157 160 160 161 160 160 160 157 151 146
Wind_Speed_850mb
16 18 14 23 33 35 30 37 24 41 38 48 32 25 19 30 40 46 52 56 44 54 62 67 66 77 70 59 63 42 36 45 43 55 62 59 57 57 52 51 50 49 50 50
7 17 24 34 38 38 40 40 37 44 46 36 24 18 24 31 39 53 53 48 46 64 74 70 68 79 77 59 62 41 26 28 40 45 48 50 52 49 47 48 51 52 51 52
9 2 12 18 30 24 14 13 15 15 27 4 13 12 20 37 52 56 54 41 52 66 76 71 63 68 78 64 60 36 26 23 37 43 46 46 46 46 48 51 53 54 56 56
8 4 10 10 8 10 14 14 15 21 22 8 12 33 42 51 56 60 54 52 71 75 85 71 69 68 71 55 55 26 26 34 44 46 42 43 46 56 55 57 59 60 57 49
6 7 14 13 4 3 7 13 11 18 12 15 36 51 50 46 48 52 66 83 83 81 80 72 65 53 50 49 45 22 30 46 50 46 44 47 58 60 63 65 66 57 52 43
2 3 10 8 5 13 8 17 8 10 20 37 31 30 34 51 72 76 79 78 73 81 78 68 56 44 51 46 39 30 34 50 51 49 50 56 64 69 61 67 58 57 47 41
12 10 15 7 10 5 1 5 27 49 50 33 32 43 88 81 75 74 80 75 73 70 67 62 50 47 49 45 40 31 35 55 54 54 60 64 66 67 69 67 58 50 47 41
5 7 14 5 2 6 10 53 59 31 64 53 61 77 71 73 78 75 73 72 69 71 66 54 43 45 48 51 32 8 55 57 56 58 63 73 68 73 69 60 56 52 43 36
13 11 10 13 31 42 58 44 46 66 64 63 68 71 74 74 73 74 73 72 74 67 60 50 38 39 39 34 30 13 53 54 64 62 70 72 75 73 67 59 51 44 37 32
3 12 16 31 49 55 49 49 65 65 69 59 74 63 70 74 70 70 73 70 71 66 58 47 29 22 35 32 34 24 44 55 66 75 72 68 67 64 61 52 42 37 33 30
14 25 31 44 44 59 49 57 66 62 64 65 60 68 68 71 71 71 74 73 65 61 55 49 29 29 22 34 36 40 60 85 80 76 76 72 67 61 46 35 29 25 24 22
9 40 43 42 61 60 50 73 73 76 64 62 56 64 66 67 69 73 75 65 59 52 46 42 39 35 42 39 42 45 72 82 82 78 70 65 60 54 38 31 26 21 23 16
17 46 58 54 59 60 67 87 65 59 59 61 61 58 63 70 71 68 61 48 44 32 30 40 42 70 76 78 76 64 74 80 75 73 63 58 53 47 47 41 35 29 26 17
54 40 31 40 60 69 59 57 45 49 46 47 53 52 56 60 59 50 48 42 17 16 22 41 64 60 72 72 70 71 65 64 64 65 61 54 46 44 45 47 45 37 31 20
42 50 41 68 74 55 54 45 51 47 49 51 47 49 53 51 44 40 28 13 22 1 15 32 43 55 57 60 62 59 57 57 55 60 52 44 41 45 48 48 47 42 41 32
45 45 59 62 63 48 53 48 45 53 52 53 51 54 48 36 31 21 17 13 13 16 18 40 45 44 40 48 57 55 54 52 48 45 42 38 40 43 43 46 46 55 43 34
41 36 53 64 64 58 51 44 43 50 50 46 48 45 36 24 18 13 19 17 14 19 23 46 40 38 40 50 49 53 49 45 39 39 38 38 38 39 41 48 51 49 41 30
35 41 53 57 60 56 56 56 51 48 53 48 40 34 24 19 22 13 17 19 15 17 31 39 41 39 46 50 49 46 44 42 41 41 39 39 41 42 41 55 50 49 44 46
38 44 57 57 53 45 44 44 44 40 38 35 30 27 20 15 13 12 16 22 27 29 36 40 42 43 43 48 45 44 43 45 45 42 41 44 44 44 52 53 49 47 50 53
41 44 59 59 60 59 57 46 39 39 39 35 28 24 17 16 13 23 21 33 36 35 39 45 44 42 41 44 45 41 40 43 43 44 46 48 47 49 47 45 49 55 50 51
43 36 50 54 59 58 61 52 46 44 41 34 35 34 28 26 23 29 35 35 34 37 41 40 40 40 39 42 41 39 41 43 42 50 47 48 48 48 48 54 55 58 52 49
41 34 46 55 62 61 57 55 49 46 43 36 37 37 31 31 44 45 46 41 34 33 34 39 36 34 38 39 39 41 51 51 49 52 48 46 47 51 54 61 58 55 49 45
37 29 44 57 59 57 54 55 52 47 44 40 43 42 43 39 44 55 59 47 36 34 31 33 26 27 33 34 41 45 51 51 55 56 54 50 49 50 55 61 57 53 49 43
32 29 39 48 53 61 61 55 56 52 48 42 38 40 38 46 47 54 47 44 40 34 39 36 31 29 25 36 41 45 48 54 57 54 52 46 45 46 50 54 53 49 46 44
33 28 34 46 52 54 50 53 55 52 51 50 46 43 41 43 48 41 42 44 38 35 38 33 25 25 29 34 35 35 42 47 53 56 53 52 53 55 57 58 54 48 46 44
33 32 31 37 40 46 48 51 56 59 58 56 52 48 42 37 37 37 38 40 38 29 36 37 32 26 28 29 31 36 39 41 45 48 51 52 55 59 63 63 58 54 48 46
24 25 28 29 33 34 40 45 51 57 62 63 56 49 44 40 39 40 40 45 45 44 44 45 42 37 34 34 32 32 34 39 43 47 48 51 53 56 58 59 58 57 60 63
Wind_Direction_850mb
236 249 269 259 262 260 244 249 246 275 273 281 290 287 280 299 308 306 312 316 301 307 312 314 312 312 310 310 326 308 254 227 212 215 215 214 214 206 203 203 204 202 204 200
256 235 242 258 260 254 253 253 256 261 269 275 270 274 271 292 310 313 308 304 307 317 315 310 316 302 306 303 320 308 248 230 215 197 199 194 193 197 197 196 201 199 194 184
268 227 295 272 253 241 218 218 205 236 257 281 274 272 297 310 307 306 302 293 310 308 309 302 291 297 303 305 319 297 235 220 206 186 182 188 196 194 191 191 190 186 177 178
267 32 244 236 238 231 226 249 247 273 280 287 279 286 293 296 296 295 291 292 307 300 303 296 293 293 300 313 311 282 219 200 188 185 187 194 194 182 183 185 176 172 169 173
251 218 296 276 36 202 187 278 258 285 322 292 297 300 286 289 293 287 287 289 296 293 296 296 290 296 306 303 302 273 223 204 203 201 199 196 191 186 180 170 166 162 166 170
356 274 250 244 140 109 98 278 63 21 323 306 310 300 298 305 301 294 291 293 289 296 299 295 286 288 289 288 295 259 230 212 205 207 207 191 186 178 170 162 162 165 168 175
242 255 279 260 157 128 323 321 321 303 293 304 291 283 299 303 297 293 296 298 295 296 294 292 291 292 287 285 281 266 216 214 204 204 196 181 178 164 161 162 162 168 171 171
237 237 269 148 98 224 277 310 298 306 304 293 294 302 297 296 298 297 296 298 296 294 294 294 297 294 282 275 265 215 192 195 197 195 177 168 167 156 158 164 166 168 172 173
185 230 247 285 257 292 309 291 307 304 292 298 298 296 296 298 299 298 297 296 301 301 303 301 295 279 273 261 225 198 169 180 169 166 154 150 152 156 161 165 167 168 173 176
329 265 254 282 301 304 301 303 314 307 293 302 298 301 302 298 298 297 297 294 298 297 295 290 300 281 265 223 203 170 165 170 160 154 152 156 156 160 164 164 169 175 177 180
258 276 293 279 294 301 299 309 318 302 303 301 303 300 299 298 298 298 298 302 302 295 290 283 291 280 175 173 183 168 173 170 155 156 156 159 162 161 163 168 176 178 178 185
271 301 292 290 305 313 312 314 312 305 307 308 302 301 305 302 302 301 305 309 300 294 291 274 269 211 226 164 145 149 156 154 156 157 161 159 162 158 161 163 153 136 125 126
271 300 294 320 318 312 319 312 312 309 308 309 314 313 316 310 309 309 312 310 298 301 263 259 165 145 144 140 167 173 162 159 158 160 159 157 159 162 162 159 154 143 141 125
311 319 314 319 317 316 318 318 322 317 315 316 318 318 315 310 309 311 310 299 298 283 352 94 139 151 153 157 164 163 159 160 160 161 161 161 161 165 166 163 158 156 150 139
338 336 320 322 321 319 329 322 325 325 326 328 327 324 321 314 310 314 312 320 122 48 74 121 137 146 164 167 166 157 158 159 160 163 163 164 165 167 171 170 166 160 151 147
335 335 332 325 327 330 338 338 335 327 331 331 335 330 324 323 323 321 352 39 122 88 97 123 138 147 160 162 160 155 153 152 150 155 162 167 170 174 178 173 168 157 153 152
327 329 333 331 338 338 341 346 336 332 332 332 335 333 335 344 343 14 44 102 98 103 118 139 142 146 150 150 151 151 146 144 150 157 165 173 176 177 177 174 160 153 139 141
334 336 345 348 342 341 346 349 346 342 337 334 340 344 345 3 16 11 77 116 106 101 125 137 142 142 149 149 143 140 141 151 157 159 160 162 162 164 166 166 152 143 141 137
339 341 350 355 354 352 0 360 346 338 343 344 356 3 0 7 42 70 113 116 114 118 122 138 145 148 149 149 145 146 148 151 153 149 148 149 147 150 156 156 150 147 148 149
339 346 352 357 5 4 8 7 4 357 0 4 20 39 41 41 74 113 120 105 106 103 118 132 142 149 149 154 157 151 147 145 148 146 144 148 149 152 156 157 154 152 154 159
340 346 359 2 6 10 16 14 13 12 10 18 29 38 48 69 87 109 107 109 96 100 116 128 144 150 153 152 158 153 146 141 143 144 146 149 153 155 154 156 159 158 159 161
347 348 4 9 14 15 19 17 24 21 20 29 44 49 64 82 81 82 92 95 98 104 110 118 129 153 153 150 150 151 149 144 144 148 149 153 155 155 159 158 161 164 163 165
358 359 9 15 15 20 22 25 30 33 31 29 37 48 59 71 75 80 80 85 91 105 106 106 122 145 144 154 158 155 153 154 152 154 156 157 162 162 158 159 163 166 167 169
12 10 14 17 20 27 25 31 35 36 39 39 41 48 57 66 71 75 79 81 87 97 102 99 103 120 144 147 149 149 153 159 161 164 164 164 161 159 159 161 163 167 169 171
11 6 8 15 22 25 30 31 38 42 44 46 46 47 52 61 69 72 79 81 74 78 89 88 98 112 130 138 144 151 154 158 167 170 172 169 164 163 164 164 166 169 167 166
27 26 12 11 20 23 26 31 36 37 42 47 47 49 52 57 67 78 86 88 90 86 86 90 97 109 118 122 132 141 148 151 157 163 167 164 165 166 166 167 165 164 167 165
28 37 35 23 16 20 28 35 38 37 37 42 50 54 61 65 69 78 89 96 98 95 93 93 97 100 105 111 117 124 134 143 148 152 157 160 160 161 160 160 160 157 151 146